| time (UTC) | temp F | wind direction | speed MPH | gust MPH | rain 1hr in | rain 24hr in | rain mn in | humidity % | barometer mb |
| 20260504035555 | 56 | 165 | 3.0 | 9.0 | 0.00 | 0.00 | 0.00 | 64 | 1011.2 |
| 20260504035053 | 56 | 164 | 3.0 | 9.0 | 0.00 | 0.00 | 0.00 | 64 | 1011.3 |
| 20260504034627 | 56 | 191 | 3.0 | 8.0 | 0.00 | 0.00 | 0.00 | 63 | 1011.3 |
| 20260504034052 | 56 | 199 | 3.0 | 8.0 | 0.00 | 0.00 | 0.00 | 63 | 1011.4 |
| 20260504033554 | 56 | 194 | 2.0 | 6.0 | 0.00 | 0.00 | 0.00 | 64 | 1011.4 |
| 20260504033054 | 56 | 178 | 2.0 | 8.0 | 0.00 | 0.00 | 0.00 | 63 | 1011.5 |
| 20260504032552 | 57 | 172 | 3.0 | 8.0 | 0.00 | 0.00 | 0.00 | 63 | 1011.5 |
| 20260504032054 | 57 | 198 | 2.0 | 8.0 | 0.00 | 0.00 | 0.00 | 63 | 1011.6 |
| 20260504031551 | 57 | 179 | 3.0 | 9.0 | 0.00 | 0.00 | 0.00 | 62 | 1011.6 |
| 20260504031053 | 57 | 165 | 3.0 | 9.0 | 0.00 | 0.00 | 0.00 | 62 | 1011.6 |
| 20260504030552 | 57 | 191 | 3.0 | 8.0 | 0.00 | 0.00 | 0.00 | 62 | 1011.6 |
| 20260504030118 | 57 | 181 | 4.0 | 8.0 | 0.00 | 0.00 | 0.00 | 61 | 1011.7 |
| 20260504025552 | 57 | 177 | 4.0 | 9.0 | 0.00 | 0.00 | 0.00 | 61 | 1011.7 |
| 20260504025052 | 57 | 185 | 3.0 | 9.0 | 0.00 | 0.00 | 0.00 | 61 | 1011.8 |
| 20260504024600 | 57 | 191 | 3.0 | 9.0 | 0.00 | 0.00 | 0.00 | 62 | 1011.7 |
| 20260504024052 | 57 | 176 | 4.0 | 8.0 | 0.00 | 0.00 | 0.00 | 62 | 1011.7 |
| 20260504023553 | 57 | 164 | 2.0 | 6.0 | 0.00 | 0.00 | 0.00 | 62 | 1011.6 |
| 20260504023057 | 57 | 200 | 3.0 | 9.0 | 0.00 | 0.00 | 0.00 | 62 | 1011.6 |
| 20260504022553 | 57 | 186 | 3.0 | 9.0 | 0.00 | 0.00 | 0.00 | 62 | 1011.4 |
| 20260504022052 | 57 | 159 | 3.0 | 9.0 | 0.00 | 0.00 | 0.00 | 62 | 1011.5 |
| 20260504021558 | 57 | 179 | 2.0 | 7.0 | 0.00 | 0.00 | 0.00 | 62 | 1011.5 |
| 20260504021054 | 57 | 175 | 3.0 | 7.0 | 0.00 | 0.00 | 0.00 | 62 | 1011.5 |
| 20260504020552 | 58 | 176 | 3.0 | 8.0 | 0.00 | 0.00 | 0.00 | 61 | 1011.5 |
| 20260504020105 | 58 | 173 | 3.0 | 8.0 | 0.00 | 0.00 | 0.00 | 61 | 1011.6 |
| 20260504015553 | 58 | 184 | 1.0 | 7.0 | 0.00 | 0.00 | 0.00 | 61 | 1011.5 |
| 20260504015052 | 58 | 160 | 2.0 | 7.0 | 0.00 | 0.00 | 0.00 | 61 | 1011.5 |
| 20260504014603 | 58 | 174 | 1.0 | 12.0 | 0.00 | 0.00 | 0.00 | 60 | 1011.6 |
| 20260504014053 | 58 | 179 | 3.0 | 12.0 | 0.00 | 0.00 | 0.00 | 61 | 1011.7 |
| 20260504013552 | 58 | 160 | 3.0 | 10.0 | 0.00 | 0.00 | 0.00 | 61 | 1011.6 |
| 20260504013058 | 58 | 167 | 2.0 | 8.0 | 0.00 | 0.00 | 0.00 | 60 | 1011.5 |
| 20260504012553 | 58 | 212 | 3.0 | 8.0 | 0.00 | 0.00 | 0.00 | 61 | 1011.5 |
| 20260504012053 | 58 | 184 | 3.0 | 8.0 | 0.00 | 0.00 | 0.00 | 59 | 1011.6 |
| 20260504011553 | 58 | 222 | 1.0 | 7.0 | 0.00 | 0.00 | 0.00 | 60 | 1011.4 |
| 20260504011052 | 59 | 169 | 2.0 | 9.0 | 0.00 | 0.00 | 0.00 | 61 | 1011.4 |
| 20260504010552 | 59 | 169 | 3.0 | 9.0 | 0.00 | 0.00 | 0.00 | 60 | 1011.3 |
| 20260504010055 | 59 | 190 | 4.0 | 10.0 | 0.00 | 0.00 | 0.00 | 59 | 1011.3 |
| 20260504005552 | 59 | 171 | 5.0 | 16.0 | 0.00 | 0.00 | 0.00 | 59 | 1011.3 |
| 20260504005055 | 59 | 173 | 4.0 | 16.0 | 0.00 | 0.00 | 0.00 | 59 | 1011.2 |
| 20260504004555 | 59 | 137 | 4.0 | 16.0 | 0.00 | 0.00 | 0.00 | 59 | 1011.2 |
| 20260504004053 | 60 | 182 | 4.0 | 10.0 | 0.00 | 0.00 | 0.00 | 58 | 1011.3 |
| 20260504003552 | 60 | 176 | 5.0 | 8.0 | 0.00 | 0.00 | 0.00 | 57 | 1011.5 |
| 20260504003155 | 60 | 173 | 3.0 | 7.0 | 0.00 | 0.00 | 0.00 | 57 | 1011.8 |
| 20260504002552 | 60 | 178 | 4.0 | 7.0 | 0.00 | 0.00 | 0.00 | 56 | 1012.2 |
| 20260504002053 | 60 | 169 | 3.0 | 11.0 | 0.00 | 0.00 | 0.00 | 55 | 1012.4 |
| 20260504001605 | 60 | 187 | 4.0 | 11.0 | 0.00 | 0.00 | 0.00 | 55 | 1012.3 |
| 20260504001053 | 60 | 181 | 2.0 | 7.0 | 0.00 | 0.00 | 0.00 | 56 | 1012.2 |
| 20260504000552 | 60 | 158 | 3.0 | 7.0 | 0.00 | 0.00 | 0.00 | 55 | 1012.2 |
| 20260504000058 | 60 | 198 | 3.0 | 7.0 | 0.00 | 0.00 | 0.00 | 55 | 1012.1 |
| 20260503235554 | 60 | 192 | 2.0 | 4.0 | 0.00 | 0.00 | 0.00 | 55 | 1012.2 |
| 20260503235053 | 60 | 216 | 1.0 | 4.0 | 0.00 | 0.00 | 0.00 | 56 | 1012.2 |
| 20260503234556 | 61 | 0 | 0.0 | 4.0 | 0.00 | 0.00 | 0.00 | 59 | 1012.4 |
| 20260503234053 | 61 | 0 | 0.0 | 2.0 | 0.00 | 0.00 | 0.00 | 56 | 1012.6 |
| 20260503233553 | 61 | 0 | 0.0 | 9.0 | 0.00 | 0.00 | 0.00 | 56 | 1012.7 |
| 20260503233150 | 61 | 0 | 0.0 | 9.0 | 0.00 | 0.00 | 0.00 | 55 | 1012.6 |
| 20260503232552 | 61 | 198 | 3.0 | 9.0 | 0.00 | 0.00 | 0.00 | 54 | 1012.6 |
| 20260503232052 | 61 | 190 | 1.0 | 9.0 | 0.00 | 0.00 | 0.00 | 55 | 1012.2 |
| 20260503231555 | 61 | 207 | 3.0 | 9.0 | 0.00 | 0.00 | 0.00 | 53 | 1011.9 |
| 20260503231052 | 61 | 184 | 3.0 | 11.0 | 0.00 | 0.00 | 0.00 | 53 | 1011.9 |
| 20260503230553 | 61 | 175 | 5.0 | 13.0 | 0.00 | 0.00 | 0.00 | 53 | 1012.0 |
| 20260503230058 | 61 | 181 | 4.0 | 15.0 | 0.00 | 0.00 | 0.00 | 53 | 1012.0 |
| 20260503225552 | 61 | 213 | 3.0 | 15.0 | 0.00 | 0.00 | 0.00 | 53 | 1012.0 |
| 20260503225057 | 61 | 213 | 7.0 | 15.0 | 0.00 | 0.00 | 0.00 | 53 | 1012.1 |
| 20260503224553 | 61 | 207 | 5.0 | 13.0 | 0.00 | 0.00 | 0.00 | 53 | 1012.2 |
| 20260503224053 | 62 | 0 | 3.0 | 13.0 | 0.00 | 0.00 | 0.00 | 53 | 1012.3 |
| 20260503223553 | 62 | 192 | 5.0 | 13.0 | 0.00 | 0.00 | 0.00 | 51 | 1012.3 |
| 20260503223057 | 62 | 195 | 6.0 | 13.0 | 0.00 | 0.00 | 0.00 | 51 | 1012.3 |
| 20260503222552 | 62 | 191 | 2.0 | 9.0 | 0.00 | 0.00 | 0.00 | 52 | 1012.3 |
| 20260503222052 | 62 | 201 | 4.0 | 12.0 | 0.00 | 0.00 | 0.00 | 52 | 1012.2 |
| 20260503221559 | 62 | 180 | 4.0 | 12.0 | 0.00 | 0.00 | 0.00 | 53 | 1012.2 |
| 20260503221053 | 61 | 0 | 2.0 | 13.0 | 0.00 | 0.00 | 0.00 | 53 | 1012.1 |
| 20260503220553 | 62 | 158 | 2.0 | 13.0 | 0.00 | 0.00 | 0.00 | 50 | 1012.5 |
| 20260503220058 | 62 | 221 | 4.0 | 13.0 | 0.00 | 0.00 | 0.00 | 50 | 1012.3 |
| 20260503215553 | 62 | 174 | 6.0 | 16.0 | 0.00 | 0.00 | 0.00 | 51 | 1012.3 |
| 20260503215052 | 62 | 0 | 5.0 | 16.0 | 0.00 | 0.00 | 0.00 | 52 | 1012.3 |
| 20260503214601 | 62 | 164 | 6.0 | 11.0 | 0.00 | 0.00 | 0.00 | 52 | 1012.4 |
| 20260503214052 | 62 | 187 | 4.0 | 14.0 | 0.00 | 0.00 | 0.00 | 51 | 1012.5 |
| 20260503213552 | 62 | 265 | 6.0 | 14.0 | 0.00 | 0.00 | 0.00 | 48 | 1012.8 |
| 20260503213056 | 61 | 165 | 6.0 | 15.0 | 0.00 | 0.00 | 0.00 | 50 | 1012.8 |
| 20260503212552 | 62 | 176 | 4.0 | 15.0 | 0.00 | 0.00 | 0.00 | 51 | 1012.8 |
| 20260503212052 | 62 | 199 | 6.0 | 15.0 | 0.00 | 0.00 | 0.00 | 49 | 1013.0 |
| 20260503211556 | 61 | 143 | 6.0 | 14.0 | 0.00 | 0.00 | 0.00 | 49 | 1013.0 |
| 20260503211054 | 61 | 207 | 3.0 | 11.0 | 0.00 | 0.00 | 0.00 | 53 | 1013.1 |
| 20260503210555 | 62 | 146 | 4.0 | 10.0 | 0.00 | 0.00 | 0.00 | 49 | 1013.4 |
| 20260503210053 | 62 | 208 | 3.0 | 10.0 | 0.00 | 0.00 | 0.00 | 50 | 1013.6 |
| 20260503205553 | 62 | 0 | 1.0 | 12.0 | 0.00 | 0.00 | 0.00 | 51 | 1013.6 |
| 20260503205053 | 61 | 179 | 3.0 | 12.0 | 0.00 | 0.00 | 0.00 | 50 | 1014.1 |
| 20260503204559 | 61 | 0 | 4.0 | 11.0 | 0.00 | 0.00 | 0.00 | 50 | 1014.3 |
| 20260503204054 | 61 | 158 | 3.0 | 11.0 | 0.00 | 0.00 | 0.00 | 49 | 1014.4 |
| 20260503203552 | 61 | 217 | 2.0 | 12.0 | 0.00 | 0.00 | 0.00 | 50 | 1014.7 |
| 20260503203053 | 62 | 204 | 2.0 | 12.0 | 0.00 | 0.00 | 0.00 | 51 | 1014.7 |
| 20260503202553 | 62 | 199 | 4.0 | 13.0 | 0.00 | 0.00 | 0.00 | 48 | 1014.8 |
| 20260503202055 | 62 | 248 | 6.0 | 13.0 | 0.00 | 0.00 | 0.00 | 50 | 1015.0 |
| 20260503201616 | 63 | 174 | 3.0 | 13.0 | 0.00 | 0.00 | 0.00 | 50 | 1014.8 |
| 20260503201052 | 63 | 183 | 4.0 | 13.0 | 0.00 | 0.00 | 0.00 | 48 | 1014.7 |
| 20260503200554 | 63 | 211 | 3.0 | 14.0 | 0.00 | 0.00 | 0.00 | 47 | 1014.7 |
| 20260503200054 | 63 | 207 | 8.0 | 14.0 | 0.00 | 0.00 | 0.00 | 46 | 1014.7 |
| 20260503195553 | 64 | 205 | 2.0 | 12.0 | 0.00 | 0.00 | 0.00 | 48 | 1014.6 |
| 20260503195052 | 63 | 214 | 3.0 | 14.0 | 0.00 | 0.00 | 0.00 | 46 | 1014.9 |
| 20260503194601 | 63 | 220 | 8.0 | 14.0 | 0.00 | 0.00 | 0.00 | 47 | 1014.9 |
| 20260503194052 | 63 | 188 | 5.0 | 14.0 | 0.00 | 0.00 | 0.00 | 48 | 1014.8 |
| 20260503193552 | 63 | 248 | 2.0 | 13.0 | 0.00 | 0.00 | 0.00 | 47 | 1015.1 |
| 20260503193108 | 64 | 174 | 6.0 | 13.0 | 0.00 | 0.00 | 0.00 | 47 | 1015.2 |
| 20260503192553 | 63 | 202 | 2.0 | 13.0 | 0.00 | 0.00 | 0.00 | 50 | 1015.3 |
| 20260503192052 | 63 | 188 | 5.0 | 13.0 | 0.00 | 0.00 | 0.00 | 48 | 1015.3 |
| 20260503191559 | 63 | 182 | 4.0 | 12.0 | 0.00 | 0.00 | 0.00 | 50 | 1015.3 |
| 20260503191053 | 63 | 161 | 4.0 | 12.0 | 0.00 | 0.00 | 0.00 | 48 | 1015.4 |
| 20260503190552 | 63 | 151 | 2.0 | 9.0 | 0.00 | 0.00 | 0.00 | 49 | 1015.4 |
| 20260503190107 | 63 | 158 | 4.0 | 13.0 | 0.00 | 0.00 | 0.00 | 51 | 1015.5 |
| 20260503185552 | 63 | 129 | 2.0 | 15.0 | 0.00 | 0.00 | 0.00 | 47 | 1015.7 |
| 20260503185052 | 63 | 231 | 3.0 | 17.0 | 0.00 | 0.00 | 0.00 | 48 | 1016.0 |
| 20260503184556 | 63 | 150 | 7.0 | 17.0 | 0.00 | 0.00 | 0.00 | 49 | 1015.9 |
| 20260503184053 | 63 | 165 | 5.0 | 15.0 | 0.00 | 0.00 | 0.00 | 49 | 1015.9 |
| 20260503183552 | 63 | 159 | 6.0 | 15.0 | 0.00 | 0.00 | 0.00 | 48 | 1016.0 |
| 20260503183101 | 63 | 269 | 4.0 | 12.0 | 0.00 | 0.00 | 0.00 | 50 | 1016.2 |
| 20260503182553 | 63 | 200 | 3.0 | 12.0 | 0.00 | 0.00 | 0.00 | 49 | 1016.4 |
| 20260503182053 | 63 | 250 | 3.0 | 16.0 | 0.00 | 0.00 | 0.00 | 52 | 1016.6 |
| 20260503181558 | 62 | 146 | 6.0 | 16.0 | 0.00 | 0.00 | 0.00 | 44 | 1016.6 |
| 20260503181053 | 62 | 175 | 6.0 | 16.0 | 0.00 | 0.00 | 0.00 | 47 | 1016.7 |
| 20260503180552 | 62 | 236 | 4.0 | 19.0 | 0.00 | 0.00 | 0.00 | 50 | 1016.8 |
| 20260503180100 | 61 | 156 | 3.0 | 19.0 | 0.00 | 0.00 | 0.00 | 48 | 1017.0 |
| 20260503175552 | 62 | 188 | 5.0 | 19.0 | 0.00 | 0.00 | 0.00 | 49 | 1017.1 |
| 20260503175052 | 62 | 202 | 6.0 | 16.0 | 0.00 | 0.00 | 0.00 | 49 | 1017.0 |
| 20260503174558 | 62 | 0 | 4.0 | 13.0 | 0.00 | 0.00 | 0.00 | 49 | 1017.3 |
| 20260503174055 | 62 | 226 | 6.0 | 14.0 | 0.00 | 0.00 | 0.00 | 47 | 1017.3 |
| 20260503173557 | 61 | 183 | 4.0 | 17.0 | 0.00 | 0.00 | 0.00 | 50 | 1017.5 |
| 20260503173115 | 61 | 187 | 5.0 | 17.0 | 0.00 | 0.00 | 0.00 | 49 | 1017.5 |
| 20260503172552 | 61 | 162 | 4.0 | 13.0 | 0.00 | 0.00 | 0.00 | 51 | 1017.5 |
| 20260503172056 | 61 | 176 | 3.0 | 13.0 | 0.00 | 0.00 | 0.00 | 51 | 1017.5 |
| 20260503171600 | 61 | 165 | 3.0 | 9.0 | 0.00 | 0.00 | 0.00 | 49 | 1017.6 |
| 20260503171052 | 61 | 0 | 1.0 | 9.0 | 0.00 | 0.00 | 0.00 | 52 | 1017.7 |
| 20260503170552 | 60 | 201 | 4.0 | 12.0 | 0.00 | 0.00 | 0.00 | 52 | 1017.7 |
| 20260503150552 | 57 | 211 | 5.0 | 11.0 | 0.00 | 0.00 | 0.00 | 50 | 1019.4 |
| 20260503150111 | 56 | 158 | 2.0 | 10.0 | 0.00 | 0.00 | 0.00 | 52 | 1019.4 |
| 20260503140118 | 51 | 205 | 3.0 | 11.0 | 0.00 | 0.00 | 0.00 | 60 | 1019.5 |
| 20260503131052 | 46 | 176 | 0.0 | 8.0 | 0.00 | 0.00 | 0.00 | 71 | 1019.6 |
| 20260503130552 | 45 | 187 | 4.0 | 8.0 | 0.00 | 0.00 | 0.00 | 71 | 1019.6 |
| 20260503110555 | 31 | 0 | 0.0 | 0.0 | 0.00 | 0.00 | 0.00 | 94 | 1019.1 |
| 20260503110117 | 30 | 0 | 0.0 | 0.0 | 0.00 | 0.00 | 0.00 | 95 | 1018.9 |
| 20260503100105 | 31 | 0 | 0.0 | 0.0 | 0.00 | 0.00 | 0.00 | 94 | 1018.8 |
| 20260503081601 | 32 | 0 | 0.0 | 0.0 | 0.00 | 0.00 | 0.00 | 93 | 1018.7 |
| 20260503081053 | 32 | 0 | 0.0 | 0.0 | 0.00 | 0.00 | 0.00 | 93 | 1018.7 |
| 20260503080553 | 32 | 0 | 0.0 | 0.0 | 0.00 | 0.00 | 0.00 | 92 | 1018.6 |
| 20260503072553 | 32 | 0 | 0.0 | 0.0 | 0.00 | 0.00 | 0.00 | 92 | 1018.5 |
| 20260503072056 | 32 | 0 | 0.0 | 0.0 | 0.00 | 0.00 | 0.00 | 92 | 1018.5 |
| 20260503071607 | 32 | 0 | 0.0 | 0.0 | 0.00 | 0.00 | 0.00 | 92 | 1018.6 |
| 20260503071053 | 32 | 0 | 0.0 | 0.0 | 0.00 | 0.00 | 0.00 | 92 | 1018.6 |
| 20260503070552 | 32 | 0 | 0.0 | 0.0 | 0.00 | 0.00 | 0.00 | 91 | 1018.8 |
| 20260503060106 | 33 | 0 | 0.0 | 0.0 | 0.00 | 0.00 | 0.00 | 90 | 1019.1 |
| 20260503055052 | 34 | 0 | 0.0 | 0.0 | 0.00 | 0.00 | 0.00 | 89 | 1019.1 |
| 20260503054557 | 34 | 0 | 0.0 | 0.0 | 0.00 | 0.00 | 0.00 | 89 | 1019.2 |
| 20260503054053 | 34 | 0 | 0.0 | 0.0 | 0.00 | 0.00 | 0.00 | 89 | 1019.3 |
| 20260503053553 | 34 | 0 | 0.0 | 0.0 | 0.00 | 0.00 | 0.00 | 89 | 1019.3 |
| 20260503053056 | 34 | 0 | 0.0 | 0.0 | 0.00 | 0.00 | 0.00 | 89 | 1019.3 |
| 20260503052553 | 34 | 0 | 0.0 | 0.0 | 0.00 | 0.00 | 0.00 | 88 | 1019.3 |
| 20260503052054 | 34 | 0 | 0.0 | 0.0 | 0.00 | 0.00 | 0.00 | 88 | 1019.2 |
| 20260503051559 | 34 | 0 | 0.0 | 0.0 | 0.00 | 0.00 | 0.00 | 88 | 1019.2 |
| 20260503051054 | 35 | 0 | 0.0 | 0.0 | 0.00 | 0.00 | 0.00 | 88 | 1019.3 |
| 20260503050556 | 35 | 0 | 0.0 | 0.0 | 0.00 | 0.00 | 0.00 | 88 | 1019.2 |
| 20260503050055 | 35 | 0 | 0.0 | 0.0 | 0.00 | 0.00 | 0.00 | 88 | 1019.2 |
| 20260503045553 | 35 | 0 | 0.0 | 0.0 | 0.00 | 0.00 | 0.00 | 87 | 1019.2 |
| 20260503045053 | 35 | 0 | 0.0 | 0.0 | 0.00 | 0.00 | 0.00 | 86 | 1019.4 |
| 20260503044553 | 35 | 0 | 0.0 | 0.0 | 0.00 | 0.00 | 0.00 | 86 | 1019.4 |
| 20260503044053 | 35 | 0 | 0.0 | 0.0 | 0.00 | 0.00 | 0.00 | 85 | 1019.4 |
| 20260503043553 | 35 | 0 | 0.0 | 0.0 | 0.00 | 0.00 | 0.00 | 86 | 1019.2 |
| 20260503043101 | 35 | 0 | 0.0 | 0.0 | 0.00 | 0.00 | 0.00 | 85 | 1019.2 |
| 20260503042550 | 35 | 0 | 0.0 | 0.0 | 0.00 | 0.00 | 0.00 | 84 | 1019.2 |
| 20260503042051 | 36 | 0 | 0.0 | 0.0 | 0.00 | 0.00 | 0.00 | 84 | 1019.2 |
| 20260503041555 | 36 | 0 | 0.0 | 0.0 | 0.00 | 0.00 | 0.00 | 84 | 1019.0 |
| 20260503041051 | 36 | 0 | 0.0 | 0.0 | 0.00 | 0.00 | 0.00 | 85 | 1019.0 |
| 20260503040551 | 36 | 0 | 0.0 | 0.0 | 0.00 | 0.00 | 0.00 | 84 | 1019.0 |
| 20260503040056 | 36 | 0 | 0.0 | 0.0 | 0.00 | 0.00 | 0.00 | 83 | 1019.0 |